ON6AT-20 Weather Reports


time (UTC)temp
C
wind
direction
speed
KPH
gust
KPH
rain 1hr
cm
rain 24hr
cm
rain mn
cm
humidity
%
barometer
mb
20260506235403 8 0 0.0 0.0 0.00 0.00 0.00 85 1013.6
20260506234503 8 0 0.0 0.0 0.00 0.00 0.00 85 1013.5
20260506233603 8 0 0.0 0.0 0.00 0.00 0.00 85 1013.3
20260506232724 7 0 0.0 0.0 0.00 0.00 0.00 86 1013.7
20260506231824 7 0 0.0 0.0 0.00 0.00 0.00 86 1013.4
20260506230903 7 0 0.0 0.0 0.00 0.00 0.00 86 1013.3
20260506230003 7 0 0.0 0.0 0.00 0.00 0.00 85 1013.1
20260506225403 7 0 0.0 0.0 0.00 0.00 0.00 84 1013.2
20260506224503 7 0 0.0 0.0 0.00 0.00 0.00 83 1013.1
20260506223603 7 0 0.0 0.0 0.00 0.00 0.00 83 1013.1
20260506222705 7 0 0.0 0.0 0.00 0.00 0.00 82 1013.1
20260506221803 7 0 0.0 0.0 0.00 0.00 0.00 81 1012.9
20260506220903 7 0 0.0 0.0 0.00 0.00 0.00 80 1013.0
20260506220003 7 0 0.0 0.0 0.00 0.00 0.00 81 1013.2
20260506215403 7 0 0.0 0.0 0.00 0.00 0.00 81 1012.9
20260506214503 7 0 0.0 0.0 0.00 0.00 0.00 79 1012.8
20260506213603 8 0 0.0 0.0 0.00 0.00 0.00 79 1012.8
20260506212703 8 0 0.0 0.0 0.00 0.00 0.00 77 1012.9
20260506211803 8 0 0.0 0.0 0.00 0.00 0.00 77 1012.8
20260506210903 8 0 0.0 0.0 0.00 0.00 0.00 74 1012.6
20260506210024 9 0 0.0 0.0 0.00 0.00 0.00 72 1012.6
20260506205424 9 0 0.0 0.0 0.00 0.00 0.00 72 1012.5
20260506204503 10 0 0.0 0.0 0.00 0.00 0.00 70 1012.5
20260506203603 10 54 0.0 3.2 0.00 0.00 0.00 69 1012.3
20260506202703 11 47 1.6 4.8 0.00 0.00 0.00 67 1012.4
20260506201824 11 29 1.6 6.4 0.00 0.00 0.00 69 1012.3
20260506200903 11 293 0.0 1.6 0.00 0.00 0.00 81 1012.2
20260506200003 11 293 1.6 4.8 0.00 0.00 0.00 81 1012.1
20260506195403 11 305 1.6 4.8 0.00 0.00 0.00 81 1012.2
20260506194503 11 22 1.6 3.2 0.00 0.00 0.00 80 1012.0
20260506193603 11 46 1.6 4.8 0.00 0.00 0.00 80 1012.0
20260506192703 11 357 1.6 4.8 0.00 0.00 0.00 78 1011.9
20260506191803 11 328 1.6 6.4 0.00 0.00 0.00 78 1011.7
20260506190903 11 322 3.2 6.4 0.00 0.00 0.00 78 1011.4
20260506190003 12 316 3.2 9.7 0.00 0.00 0.00 77 1011.5
20260506185424 12 335 3.2 6.4 0.00 0.00 0.00 77 1011.4